Powrót do katalogu

STARLINK-30413

AktywnyŁącznośćVLEO
NORAD 57814·PAYLOAD·🇺🇸 United States

Wystrzelony Sep 9, 2023 z Cape Canaveral Space Force Station

Loading…

Następne Przeloty (najbliższe 24 godziny)

TLE

ŚwieżeSource: CelesTrak SupGP

Epoka: Sep 15, 2026, 03:21 UTC

1 57814C 23138G   26258.14006944 -.00049783  00000+0 -18032-2 0  2589
2 57814  42.9990 244.7520 0001249 268.2663 200.4138 15.27602381    17

Śledź STARLINK-30413 w czasie rzeczywistym z AllMySat

Download on the App Store